| time (UTC) | temp F | wind direction | speed MPH | gust MPH | rain 1hr in | rain 24hr in | rain mn in | humidity % | barometer mb |
| 20260906180514 | 65 | 244 | 3.0 | 8.0 | 0.00 | 0.05 | 0.01 | 74 | 1011.2 |
| 20260906180025 | 65 | 267 | 2.0 | 7.0 | 0.00 | 0.05 | 0.01 | 71 | 1011.2 |
| 20260906175515 | 65 | 17 | 2.0 | 10.0 | 0.00 | 0.05 | 0.01 | 70 | 1011.1 |
| 20260906175012 | 66 | 313 | 4.0 | 10.0 | 0.00 | 0.05 | 0.01 | 72 | 1011.1 |
| 20260906174514 | 66 | 285 | 1.0 | 5.0 | 0.00 | 0.05 | 0.01 | 70 | 1011.2 |
| 20260906174011 | 66 | 248 | 1.0 | 5.0 | 0.00 | 0.05 | 0.01 | 72 | 1011.2 |
| 20260906173511 | 66 | 311 | 2.0 | 7.0 | 0.00 | 0.05 | 0.01 | 73 | 1011.2 |
| 20260906173012 | 65 | 302 | 2.0 | 7.0 | 0.00 | 0.05 | 0.01 | 72 | 1011.3 |
| 20260906172512 | 65 | 333 | 1.0 | 5.0 | 0.00 | 0.05 | 0.01 | 72 | 1011.3 |
| 20260906172011 | 65 | 242 | 1.0 | 9.0 | 0.00 | 0.05 | 0.01 | 76 | 1011.3 |
| 20260906171511 | 66 | 284 | 4.0 | 9.0 | 0.00 | 0.05 | 0.01 | 70 | 1011.3 |
| 20260906171011 | 66 | 152 | 2.0 | 7.0 | 0.00 | 0.05 | 0.01 | 68 | 1011.3 |
| 20260906170510 | 66 | 286 | 1.0 | 8.0 | 0.00 | 0.05 | 0.01 | 73 | 1011.4 |
| 20260906170008 | 65 | 350 | 2.0 | 8.0 | 0.00 | 0.05 | 0.01 | 76 | 1011.5 |
| 20260906165508 | 64 | 313 | 1.0 | 4.0 | 0.00 | 0.05 | 0.01 | 76 | 1011.5 |
| 20260906165010 | 64 | 227 | 0.0 | 8.0 | 0.00 | 0.05 | 0.01 | 77 | 1011.7 |
| 20260906164508 | 64 | 317 | 2.0 | 5.0 | 0.00 | 0.05 | 0.01 | 79 | 1011.8 |
| 20260906164007 | 64 | 302 | 0.0 | 4.0 | 0.00 | 0.05 | 0.01 | 76 | 1011.7 |
| 20260906163504 | 64 | 322 | 0.0 | 5.0 | 0.00 | 0.05 | 0.01 | 79 | 1011.9 |
| 20260906163004 | 63 | 355 | 1.0 | 5.0 | 0.00 | 0.05 | 0.01 | 80 | 1012.0 |
| 20260906162505 | 63 | 287 | 0.0 | 5.0 | 0.00 | 0.05 | 0.01 | 79 | 1012.0 |
| 20260906162003 | 63 | 250 | 2.0 | 5.0 | 0.00 | 0.05 | 0.01 | 78 | 1012.2 |
| 20260906161502 | 62 | 279 | 2.0 | 7.0 | 0.00 | 0.05 | 0.01 | 80 | 1012.2 |
| 20260906161002 | 62 | 220 | 3.0 | 6.0 | 0.00 | 0.05 | 0.01 | 79 | 1012.1 |
| 20260906160600 | 62 | 347 | 1.0 | 8.0 | 0.00 | 0.05 | 0.01 | 83 | 1012.2 |
| 20260906160059 | 62 | 235 | 1.0 | 8.0 | 0.00 | 0.05 | 0.01 | 82 | 1012.2 |
| 20260906155600 | 61 | 360 | 1.0 | 4.0 | 0.00 | 0.05 | 0.01 | 84 | 1012.2 |
| 20260906155056 | 61 | 248 | 0.0 | 8.0 | 0.00 | 0.05 | 0.01 | 87 | 1012.3 |
| 20260906154559 | 61 | 178 | 2.0 | 8.0 | 0.00 | 0.05 | 0.01 | 85 | 1012.3 |
| 20260906154056 | 61 | 208 | 2.0 | 6.0 | 0.00 | 0.05 | 0.01 | 87 | 1012.4 |
| 20260906153556 | 60 | 286 | 1.0 | 5.0 | 0.00 | 0.05 | 0.01 | 89 | 1012.4 |
| 20260906153109 | 60 | 268 | 2.0 | 5.0 | 0.00 | 0.05 | 0.01 | 88 | 1012.3 |
| 20260906152551 | 60 | 295 | 2.0 | 5.0 | 0.00 | 0.05 | 0.01 | 88 | 1012.4 |
| 20260906152051 | 59 | 295 | 1.0 | 5.0 | 0.00 | 0.05 | 0.01 | 88 | 1012.4 |
| 20260906151550 | 59 | 253 | 1.0 | 4.0 | 0.00 | 0.05 | 0.01 | 88 | 1012.4 |
| 20260906151049 | 59 | 275 | 2.0 | 7.0 | 0.00 | 0.05 | 0.01 | 89 | 1012.4 |
| 20260906150548 | 59 | 243 | 2.0 | 7.0 | 0.00 | 0.05 | 0.01 | 88 | 1012.4 |
| 20260906150047 | 59 | 265 | 1.0 | 3.0 | 0.00 | 0.05 | 0.01 | 90 | 1012.5 |
| 20260906145547 | 58 | 300 | 0.0 | 3.0 | 0.00 | 0.05 | 0.01 | 92 | 1012.5 |
| 20260906145044 | 58 | 271 | 1.0 | 5.0 | 0.00 | 0.05 | 0.01 | 91 | 1012.4 |
| 20260906144543 | 58 | 321 | 0.0 | 5.0 | 0.00 | 0.05 | 0.01 | 92 | 1012.4 |
| 20260906144042 | 57 | 288 | 1.0 | 5.0 | 0.00 | 0.05 | 0.01 | 92 | 1012.3 |
| 20260906143541 | 57 | 269 | 2.0 | 4.0 | 0.00 | 0.05 | 0.01 | 93 | 1012.4 |
| 20260906143040 | 57 | 290 | 2.0 | 4.0 | 0.00 | 0.05 | 0.01 | 94 | 1012.3 |
| 20260906142539 | 57 | 306 | 1.0 | 4.0 | 0.00 | 0.05 | 0.01 | 94 | 1012.3 |
| 20260906142039 | 56 | 317 | 1.0 | 4.0 | 0.00 | 0.05 | 0.01 | 94 | 1012.2 |
| 20260906141545 | 56 | 281 | 2.0 | 4.0 | 0.00 | 0.05 | 0.01 | 95 | 1012.1 |
| 20260906141038 | 56 | 278 | 1.0 | 4.0 | 0.00 | 0.05 | 0.01 | 95 | 1012.1 |
| 20260906140538 | 56 | 292 | 1.0 | 4.0 | 0.00 | 0.05 | 0.01 | 95 | 1012.1 |
| 20260906140038 | 55 | 281 | 1.0 | 3.0 | 0.00 | 0.05 | 0.01 | 95 | 1012.0 |
| 20260906135537 | 55 | 271 | 1.0 | 4.0 | 0.00 | 0.05 | 0.01 | 96 | 1012.0 |
| 20260906135037 | 55 | 263 | 2.0 | 4.0 | 0.00 | 0.05 | 0.01 | 96 | 1012.1 |
| 20260906134536 | 55 | 289 | 2.0 | 4.0 | 0.00 | 0.05 | 0.01 | 97 | 1012.1 |
| 20260906134036 | 55 | 259 | 1.0 | 4.0 | 0.00 | 0.05 | 0.01 | 97 | 1012.0 |
| 20260906133535 | 55 | 261 | 0.0 | 5.0 | 0.00 | 0.05 | 0.01 | 97 | 1012.0 |
| 20260906133043 | 55 | 310 | 2.0 | 5.0 | 0.00 | 0.05 | 0.01 | 97 | 1012.0 |
| 20260906132535 | 54 | 217 | 1.0 | 3.0 | 0.00 | 0.05 | 0.01 | 97 | 1012.0 |
| 20260906132034 | 54 | 298 | 0.0 | 2.0 | 0.00 | 0.05 | 0.01 | 97 | 1011.8 |
| 20260906131543 | 54 | 286 | 1.0 | 2.0 | 0.00 | 0.05 | 0.01 | 97 | 1011.9 |
| 20260906131034 | 54 | 285 | 0.0 | 2.0 | 0.00 | 0.05 | 0.01 | 97 | 1011.8 |
| 20260906130534 | 54 | 304 | 0.0 | 2.0 | 0.00 | 0.05 | 0.01 | 97 | 1011.8 |
| 20260906130044 | 54 | 234 | 0.0 | 2.0 | 0.00 | 0.05 | 0.01 | 97 | 1011.9 |
| 20260906125534 | 54 | 255 | 0.0 | 3.0 | 0.00 | 0.05 | 0.01 | 97 | 1011.9 |
| 20260906125036 | 54 | 265 | 1.0 | 3.0 | 0.00 | 0.05 | 0.01 | 97 | 1011.9 |
| 20260906124533 | 54 | 326 | 0.0 | 3.0 | 0.00 | 0.05 | 0.01 | 97 | 1011.9 |
| 20260906124033 | 54 | 300 | 1.0 | 4.0 | 0.00 | 0.05 | 0.01 | 97 | 1011.9 |
| 20260906123532 | 54 | 315 | 2.0 | 6.0 | 0.00 | 0.05 | 0.01 | 97 | 1011.9 |
| 20260906123035 | 54 | 281 | 0.0 | 4.0 | 0.00 | 0.05 | 0.01 | 98 | 1011.8 |
| 20260906122531 | 54 | 270 | 0.0 | 3.0 | 0.00 | 0.05 | 0.01 | 98 | 1011.7 |
| 20260906122030 | 54 | 269 | 1.0 | 5.0 | 0.00 | 0.05 | 0.01 | 97 | 1011.6 |
| 20260906121536 | 54 | 235 | 1.0 | 5.0 | 0.00 | 0.05 | 0.01 | 97 | 1011.6 |
| 20260906121029 | 54 | 228 | 1.0 | 3.0 | 0.00 | 0.05 | 0.01 | 97 | 1011.7 |
| 20260906120531 | 54 | 263 | 0.0 | 5.0 | 0.00 | 0.05 | 0.01 | 97 | 1011.7 |
| 20260906120029 | 54 | 276 | 1.0 | 5.0 | 0.00 | 0.05 | 0.01 | 97 | 1011.6 |
| 20260906115530 | 54 | 223 | 1.0 | 4.0 | 0.00 | 0.05 | 0.01 | 97 | 1011.6 |
| 20260906115028 | 54 | 251 | 0.0 | 2.0 | 0.00 | 0.05 | 0.01 | 97 | 1011.5 |
| 20260906114531 | 54 | 217 | 0.0 | 2.0 | 0.00 | 0.05 | 0.01 | 97 | 1011.5 |
| 20260906114025 | 54 | 253 | 0.0 | 2.0 | 0.00 | 0.05 | 0.01 | 97 | 1011.4 |
| 20260906113525 | 54 | 266 | 0.0 | 4.0 | 0.00 | 0.05 | 0.01 | 97 | 1011.3 |
| 20260906113026 | 54 | 261 | 0.0 | 4.0 | 0.00 | 0.05 | 0.01 | 97 | 1011.3 |
| 20260906112524 | 54 | 297 | 0.0 | 3.0 | 0.00 | 0.05 | 0.01 | 97 | 1011.2 |
| 20260906112023 | 54 | 269 | 1.0 | 3.0 | 0.00 | 0.05 | 0.01 | 97 | 1011.0 |
| 20260906111522 | 54 | 259 | 0.0 | 3.0 | 0.00 | 0.05 | 0.01 | 97 | 1010.9 |
| 20260906111021 | 54 | 246 | 0.0 | 2.0 | 0.00 | 0.05 | 0.01 | 97 | 1010.9 |
| 20260906110520 | 54 | 152 | 0.0 | 2.0 | 0.00 | 0.05 | 0.01 | 97 | 1010.8 |
| 20260906110020 | 54 | 283 | 0.0 | 1.0 | 0.00 | 0.05 | 0.01 | 97 | 1010.6 |
| 20260906105519 | 54 | 283 | 0.0 | 3.0 | 0.00 | 0.05 | 0.01 | 97 | 1010.4 |
| 20260906105018 | 54 | 247 | 0.0 | 3.0 | 0.00 | 0.05 | 0.01 | 97 | 1010.4 |
| 20260906104517 | 54 | 272 | 0.0 | 2.0 | 0.00 | 0.05 | 0.01 | 97 | 1010.6 |
| 20260906104017 | 54 | 296 | 0.0 | 4.0 | 0.00 | 0.05 | 0.01 | 97 | 1010.6 |
| 20260906103516 | 54 | 290 | 0.0 | 4.0 | 0.00 | 0.05 | 0.01 | 97 | 1010.5 |
| 20260906103017 | 54 | 295 | 0.0 | 2.0 | 0.00 | 0.05 | 0.01 | 97 | 1010.4 |
| 20260906102519 | 54 | 294 | 0.0 | 2.0 | 0.00 | 0.05 | 0.01 | 97 | 1010.3 |
| 20260906102117 | 54 | 280 | 0.0 | 3.0 | 0.00 | 0.05 | 0.01 | 97 | 1010.3 |
| 20260906101515 | 54 | 267 | 1.0 | 2.0 | 0.00 | 0.05 | 0.01 | 97 | 1010.2 |
| 20260906101014 | 54 | 272 | 0.0 | 2.0 | 0.00 | 0.05 | 0.01 | 97 | 1010.1 |
| 20260906100518 | 54 | 36 | 0.0 | 2.0 | 0.00 | 0.05 | 0.01 | 97 | 1010.2 |
| 20260906100026 | 54 | 254 | 0.0 | 2.0 | 0.00 | 0.05 | 0.01 | 97 | 1010.2 |
| 20260906095513 | 54 | 254 | 0.0 | 1.0 | 0.00 | 0.05 | 0.01 | 97 | 1010.1 |
| 20260906095012 | 54 | 254 | 0.0 | 2.0 | 0.00 | 0.05 | 0.01 | 97 | 1010.1 |
| 20260906094511 | 54 | 254 | 1.0 | 2.0 | 0.00 | 0.05 | 0.01 | 97 | 1010.0 |
| 20260906094014 | 54 | 254 | 0.0 | 2.0 | 0.00 | 0.05 | 0.01 | 97 | 1009.9 |
| 20260906093511 | 54 | 211 | 0.0 | 2.0 | 0.00 | 0.05 | 0.01 | 97 | 1009.9 |
| 20260906093015 | 54 | 211 | 0.0 | 2.0 | 0.00 | 0.05 | 0.01 | 96 | 1010.0 |
| 20260906092513 | 54 | 238 | 1.0 | 3.0 | 0.00 | 0.05 | 0.01 | 96 | 1009.9 |
| 20260906092010 | 55 | 257 | 0.0 | 3.0 | 0.00 | 0.05 | 0.01 | 97 | 1009.9 |
| 20260906091508 | 55 | 304 | 1.0 | 3.0 | 0.00 | 0.05 | 0.01 | 97 | 1009.9 |
| 20260906091008 | 55 | 260 | 1.0 | 3.0 | 0.00 | 0.05 | 0.01 | 97 | 1009.8 |
| 20260906090507 | 55 | 277 | 0.0 | 1.0 | 0.00 | 0.05 | 0.01 | 97 | 1009.7 |
| 20260906090007 | 55 | 277 | 0.0 | 1.0 | 0.00 | 0.05 | 0.01 | 97 | 1009.7 |
| 20260906085506 | 55 | 277 | 0.0 | 1.0 | 0.00 | 0.05 | 0.01 | 97 | 1009.7 |
| 20260906085006 | 55 | 277 | 0.0 | 1.0 | 0.00 | 0.05 | 0.01 | 97 | 1009.6 |
| 20260906084510 | 55 | 277 | 0.0 | 1.0 | 0.00 | 0.05 | 0.01 | 97 | 1009.6 |
| 20260906084006 | 55 | 300 | 0.0 | 1.0 | 0.00 | 0.05 | 0.01 | 96 | 1009.5 |
| 20260906083505 | 55 | 271 | 0.0 | 2.0 | 0.00 | 0.05 | 0.01 | 96 | 1009.5 |
| 20260906083005 | 55 | 235 | 0.0 | 1.0 | 0.00 | 0.05 | 0.01 | 96 | 1009.5 |
| 20260906082505 | 55 | 267 | 0.0 | 2.0 | 0.00 | 0.05 | 0.01 | 96 | 1009.5 |
| 20260906082004 | 55 | 266 | 0.0 | 2.0 | 0.00 | 0.05 | 0.01 | 96 | 1009.5 |
| 20260906081504 | 55 | 242 | 0.0 | 2.0 | 0.00 | 0.05 | 0.01 | 96 | 1009.5 |
| 20260906081003 | 55 | 223 | 0.0 | 3.0 | 0.00 | 0.05 | 0.01 | 96 | 1009.5 |
| 20260906080503 | 55 | 219 | 0.0 | 3.0 | 0.01 | 0.05 | 0.01 | 96 | 1009.4 |
| 20260906080002 | 55 | 240 | 0.0 | 2.0 | 0.01 | 0.05 | 0.01 | 96 | 1009.4 |
| 20260906075502 | 55 | 275 | 0.0 | 0.0 | 0.01 | 0.05 | 0.01 | 96 | 1009.3 |
| 20260906075001 | 55 | 275 | 0.0 | 0.0 | 0.01 | 0.05 | 0.01 | 96 | 1009.2 |
| 20260906074601 | 55 | 275 | 0.0 | 0.0 | 0.01 | 0.05 | 0.01 | 96 | 1009.2 |
| 20260906074101 | 55 | 275 | 0.0 | 1.0 | 0.01 | 0.05 | 0.01 | 96 | 1009.2 |
| 20260906073603 | 55 | 275 | 0.0 | 1.0 | 0.01 | 0.05 | 0.01 | 96 | 1009.1 |
| 20260906073100 | 55 | 294 | 0.0 | 1.0 | 0.01 | 0.05 | 0.01 | 96 | 1009.1 |
| 20260906072600 | 55 | 249 | 0.0 | 2.0 | 0.01 | 0.05 | 0.01 | 96 | 1009.1 |
| 20260906072059 | 55 | 263 | 0.0 | 2.0 | 0.01 | 0.05 | 0.01 | 96 | 1009.1 |
| 20260906071601 | 55 | 260 | 1.0 | 2.0 | 0.01 | 0.05 | 0.01 | 96 | 1009.1 |
| 20260906071059 | 55 | 295 | 0.0 | 0.0 | 0.01 | 0.05 | 0.01 | 96 | 1009.1 |
| 20260906070558 | 55 | 296 | 0.0 | 2.0 | 0.00 | 0.04 | 0.00 | 96 | 1009.0 |
| 20260906070057 | 55 | 228 | 0.0 | 2.0 | 0.00 | 0.04 | 0.00 | 96 | 1009.1 |
| 20260906065558 | 55 | 232 | 0.0 | 1.0 | 0.00 | 0.04 | 0.00 | 96 | 1009.0 |
| 20260906065057 | 55 | 232 | 0.0 | 1.0 | 0.00 | 0.04 | 0.00 | 96 | 1009.0 |
| 20260906064556 | 55 | 177 | 0.0 | 1.0 | 0.00 | 0.04 | 0.00 | 96 | 1009.0 |
| 20260906064059 | 55 | 177 | 0.0 | 1.0 | 0.00 | 0.04 | 0.00 | 96 | 1008.9 |
| 20260906063555 | 55 | 205 | 0.0 | 1.0 | 0.00 | 0.04 | 0.00 | 96 | 1008.9 |
| 20260906063056 | 55 | 205 | 0.0 | 2.0 | 0.00 | 0.04 | 0.00 | 96 | 1009.0 |
| 20260906062556 | 55 | 205 | 0.0 | 2.0 | 0.00 | 0.04 | 0.00 | 96 | 1009.0 |
| 20260906062054 | 55 | 126 | 0.0 | 0.0 | 0.00 | 0.04 | 0.00 | 96 | 1009.4 |
| 20260906061555 | 55 | 126 | 0.0 | 2.0 | 0.00 | 0.04 | 0.00 | 96 | 1008.8 |
| 20260906061054 | 55 | 126 | 0.0 | 4.0 | 0.00 | 0.04 | 0.00 | 96 | 1008.9 |
| 20260906060554 | 55 | 71 | 1.0 | 4.0 | 0.00 | 0.04 | 0.00 | 96 | 1008.9 |
| 20260906060125 | 55 | 222 | 0.0 | 1.0 | 0.00 | 0.04 | 0.00 | 96 | 1008.9 |
| 20260906055553 | 55 | 222 | 0.0 | 1.0 | 0.00 | 0.04 | 0.00 | 96 | 1008.9 |
| 20260906055052 | 55 | 209 | 0.0 | 0.0 | 0.00 | 0.04 | 0.00 | 96 | 1008.9 |
| 20260906054607 | 55 | 209 | 0.0 | 1.0 | 0.00 | 0.04 | 0.00 | 96 | 1008.9 |
| 20260906054051 | 55 | 209 | 0.0 | 1.0 | 0.00 | 0.04 | 0.00 | 96 | 1008.9 |
| 20260906053550 | 55 | 253 | 0.0 | 2.0 | 0.00 | 0.04 | 0.00 | 96 | 1008.8 |
| 20260906053050 | 55 | 253 | 0.0 | 3.0 | 0.00 | 0.04 | 0.00 | 96 | 1008.8 |
| 20260906052551 | 56 | 258 | 1.0 | 3.0 | 0.00 | 0.04 | 0.00 | 96 | 1008.8 |
| 20260906052050 | 56 | 257 | 0.0 | 2.0 | 0.00 | 0.04 | 0.00 | 96 | 1008.8 |
| 20260906051549 | 56 | 257 | 0.0 | 2.0 | 0.00 | 0.04 | 0.00 | 96 | 1008.8 |
| 20260906051055 | 56 | 240 | 0.0 | 1.0 | 0.00 | 0.04 | 0.00 | 96 | 1008.7 |
| 20260906050550 | 56 | 148 | 0.0 | 0.0 | 0.00 | 0.04 | 0.00 | 96 | 1008.7 |
| 20260906050047 | 56 | 148 | 0.0 | 0.0 | 0.00 | 0.04 | 0.00 | 95 | 1008.7 |
| 20260906045547 | 56 | 148 | 0.0 | 2.0 | 0.00 | 0.04 | 0.00 | 95 | 1008.7 |
| 20260906045046 | 56 | 148 | 0.0 | 2.0 | 0.00 | 0.04 | 0.00 | 95 | 1008.7 |
| 20260906044546 | 56 | 117 | 0.0 | 2.0 | 0.00 | 0.04 | 0.00 | 95 | 1008.7 |
| 20260906044048 | 56 | 211 | 0.0 | 1.0 | 0.00 | 0.04 | 0.00 | 95 | 1008.7 |
| 20260906043545 | 56 | 236 | 0.0 | 2.0 | 0.00 | 0.04 | 0.00 | 95 | 1008.7 |
| 20260906043047 | 56 | 236 | 0.0 | 3.0 | 0.00 | 0.04 | 0.00 | 95 | 1008.7 |
| 20260906042544 | 56 | 212 | 0.0 | 3.0 | 0.00 | 0.04 | 0.00 | 95 | 1008.7 |
| 20260906042045 | 56 | 265 | 0.0 | 3.0 | 0.00 | 0.04 | 0.00 | 95 | 1008.6 |
| 20260906041544 | 56 | 319 | 0.0 | 3.0 | 0.00 | 0.04 | 0.00 | 95 | 1008.7 |
| 20260906041044 | 56 | 269 | 1.0 | 3.0 | 0.00 | 0.04 | 0.00 | 95 | 1008.6 |
| 20260906040543 | 56 | 240 | 1.0 | 3.0 | 0.01 | 0.04 | 0.00 | 95 | 1008.6 |
| 20260906040042 | 56 | 193 | 0.0 | 3.0 | 0.01 | 0.04 | 0.00 | 94 | 1008.5 |
| 20260906035544 | 56 | 204 | 0.0 | 1.0 | 0.01 | 0.04 | 0.04 | 94 | 1008.4 |
| 20260906035041 | 56 | 325 | 0.0 | 2.0 | 0.01 | 0.04 | 0.04 | 94 | 1008.4 |
| 20260906034554 | 56 | 350 | 0.0 | 3.0 | 0.01 | 0.04 | 0.04 | 95 | 1008.5 |
| 20260906034039 | 57 | 350 | 0.0 | 3.0 | 0.01 | 0.04 | 0.04 | 95 | 1008.4 |
| 20260906033539 | 57 | 296 | 1.0 | 2.0 | 0.01 | 0.04 | 0.04 | 95 | 1008.3 |
| 20260906033040 | 57 | 287 | 0.0 | 1.0 | 0.01 | 0.04 | 0.04 | 95 | 1008.2 |
| 20260906032538 | 57 | 189 | 0.0 | 3.0 | 0.01 | 0.04 | 0.04 | 95 | 1008.1 |
| 20260906032038 | 57 | 121 | 0.0 | 3.0 | 0.01 | 0.04 | 0.04 | 95 | 1008.1 |
| 20260906031538 | 57 | 153 | 0.0 | 3.0 | 0.01 | 0.04 | 0.04 | 95 | 1008.1 |
| 20260906031038 | 57 | 148 | 1.0 | 3.0 | 0.01 | 0.04 | 0.04 | 95 | 1008.2 |
| 20260906030537 | 57 | 248 | 0.0 | 5.0 | 0.00 | 0.03 | 0.03 | 95 | 1008.4 |
| 20260906030037 | 58 | 288 | 1.0 | 5.0 | 0.00 | 0.03 | 0.03 | 95 | 1008.6 |
| 20260906025535 | 58 | 250 | 1.0 | 5.0 | 0.00 | 0.03 | 0.03 | 95 | 1008.6 |
| 20260906025036 | 58 | 303 | 1.0 | 5.0 | 0.00 | 0.03 | 0.03 | 95 | 1008.7 |
| 20260906024536 | 58 | 257 | 1.0 | 3.0 | 0.00 | 0.03 | 0.03 | 95 | 1008.7 |
| 20260906024032 | 58 | 245 | 0.0 | 3.0 | 0.00 | 0.03 | 0.03 | 95 | 1008.6 |
| 20260906023531 | 59 | 261 | 0.0 | 2.0 | 0.00 | 0.03 | 0.03 | 95 | 1008.5 |
| 20260906023032 | 59 | 217 | 0.0 | 3.0 | 0.00 | 0.03 | 0.03 | 96 | 1008.4 |
| 20260906022530 | 59 | 194 | 0.0 | 3.0 | 0.00 | 0.03 | 0.03 | 96 | 1008.5 |
| 20260906022031 | 59 | 295 | 1.0 | 2.0 | 0.00 | 0.03 | 0.03 | 96 | 1008.6 |
| 20260906021538 | 59 | 294 | 0.0 | 2.0 | 0.00 | 0.03 | 0.03 | 96 | 1008.6 |
| 20260906021029 | 59 | 349 | 0.0 | 2.0 | 0.00 | 0.03 | 0.03 | 96 | 1008.6 |
| 20260906020530 | 59 | 278 | 0.0 | 2.0 | 0.00 | 0.03 | 0.03 | 96 | 1008.6 |
| 20260906020028 | 59 | 278 | 0.0 | 2.0 | 0.00 | 0.03 | 0.03 | 96 | 1008.6 |
| 20260906015529 | 59 | 294 | 0.0 | 2.0 | 0.00 | 0.03 | 0.03 | 96 | 1008.6 |
| 20260906015028 | 60 | 278 | 0.0 | 1.0 | 0.00 | 0.03 | 0.03 | 96 | 1008.6 |
| 20260906014528 | 60 | 294 | 0.0 | 2.0 | 0.00 | 0.03 | 0.03 | 96 | 1008.7 |
| 20260906014030 | 60 | 263 | 0.0 | 2.0 | 0.00 | 0.03 | 0.03 | 96 | 1008.7 |
| 20260906013527 | 60 | 263 | 0.0 | 2.0 | 0.00 | 0.03 | 0.03 | 96 | 1008.7 |
| 20260906013027 | 60 | 263 | 0.0 | 2.0 | 0.00 | 0.03 | 0.03 | 96 | 1008.6 |
| 20260906012529 | 60 | 259 | 0.0 | 2.0 | 0.00 | 0.03 | 0.03 | 96 | 1008.5 |
| 20260906012026 | 60 | 240 | 0.0 | 2.0 | 0.00 | 0.03 | 0.03 | 96 | 1008.7 |
| 20260906011527 | 60 | 240 | 0.0 | 0.0 | 0.00 | 0.03 | 0.03 | 96 | 1008.5 |
| 20260906011027 | 60 | 240 | 0.0 | 1.0 | 0.00 | 0.03 | 0.03 | 95 | 1008.6 |
| 20260906010526 | 60 | 240 | 0.0 | 1.0 | 0.00 | 0.03 | 0.03 | 95 | 1008.5 |
| 20260906010026 | 60 | 240 | 0.0 | 0.0 | 0.00 | 0.03 | 0.03 | 95 | 1008.5 |
| 20260906005525 | 60 | 240 | 0.0 | 0.0 | 0.00 | 0.03 | 0.03 | 95 | 1008.4 |
| 20260906005025 | 60 | 240 | 0.0 | 0.0 | 0.00 | 0.03 | 0.03 | 95 | 1008.4 |
| 20260906004524 | 60 | 240 | 0.0 | 0.0 | 0.00 | 0.03 | 0.03 | 95 | 1008.3 |
| 20260906004023 | 60 | 240 | 0.0 | 0.0 | 0.00 | 0.03 | 0.03 | 95 | 1008.3 |
| 20260906003522 | 60 | 240 | 0.0 | 0.0 | 0.00 | 0.03 | 0.03 | 95 | 1008.2 |
| 20260906003022 | 60 | 240 | 0.0 | 0.0 | 0.00 | 0.03 | 0.03 | 95 | 1008.2 |
| 20260906002521 | 60 | 240 | 0.0 | 0.0 | 0.00 | 0.03 | 0.03 | 95 | 1008.1 |
| 20260906002021 | 60 | 240 | 0.0 | 1.0 | 0.00 | 0.03 | 0.03 | 95 | 1008.0 |
| 20260906001539 | 60 | 240 | 0.0 | 3.0 | 0.00 | 0.03 | 0.03 | 95 | 1008.0 |
| 20260906001020 | 60 | 232 | 0.0 | 3.0 | 0.00 | 0.03 | 0.03 | 95 | 1008.1 |
| 20260906000521 | 60 | 292 | 0.0 | 2.0 | 0.00 | 0.03 | 0.03 | 95 | 1008.0 |
| 20260906000021 | 60 | 273 | 0.0 | 2.0 | 0.00 | 0.03 | 0.03 | 95 | 1008.0 |
| 20260905235520 | 60 | 273 | 0.0 | 2.0 | 0.01 | 0.03 | 0.03 | 95 | 1008.0 |
| 20260905235020 | 60 | 273 | 0.0 | 2.0 | 0.01 | 0.03 | 0.03 | 95 | 1008.0 |
| 20260905234519 | 61 | 249 | 0.0 | 2.0 | 0.01 | 0.03 | 0.03 | 95 | 1008.0 |
| 20260905234018 | 61 | 249 | 0.0 | 3.0 | 0.01 | 0.03 | 0.03 | 95 | 1007.9 |
| 20260905233519 | 61 | 275 | 1.0 | 3.0 | 0.01 | 0.03 | 0.03 | 94 | 1007.9 |
| 20260905233021 | 61 | 275 | 0.0 | 2.0 | 0.01 | 0.03 | 0.03 | 94 | 1007.8 |
| 20260905232523 | 61 | 275 | 0.0 | 1.0 | 0.01 | 0.03 | 0.03 | 94 | 1007.7 |
| 20260905232019 | 61 | 232 | 0.0 | 0.0 | 0.01 | 0.03 | 0.03 | 94 | 1007.7 |
| 20260905231522 | 61 | 232 | 0.0 | 1.0 | 0.01 | 0.03 | 0.03 | 94 | 1007.7 |
| 20260905231021 | 61 | 248 | 0.0 | 1.0 | 0.01 | 0.03 | 0.03 | 94 | 1007.6 |
| 20260905230517 | 61 | 262 | 0.0 | 3.0 | 0.01 | 0.03 | 0.03 | 94 | 1007.7 |
| 20260905230021 | 61 | 132 | 0.0 | 3.0 | 0.01 | 0.03 | 0.03 | 93 | 1007.7 |
| 20260905225520 | 61 | 275 | 0.0 | 3.0 | 0.00 | 0.02 | 0.02 | 93 | 1007.8 |
| 20260905225017 | 61 | 203 | 0.0 | 3.0 | 0.00 | 0.02 | 0.02 | 93 | 1007.8 |
| 20260905224521 | 62 | 348 | 0.0 | 3.0 | 0.00 | 0.02 | 0.02 | 93 | 1007.9 |
| 20260905224015 | 62 | 281 | 0.0 | 2.0 | 0.00 | 0.02 | 0.02 | 93 | 1007.8 |
| 20260905223513 | 62 | 90 | 0.0 | 4.0 | 0.00 | 0.02 | 0.02 | 93 | 1007.6 |
| 20260905223030 | 62 | 229 | 0.0 | 4.0 | 0.00 | 0.02 | 0.02 | 92 | 1007.6 |
| 20260905222513 | 62 | 232 | 0.0 | 4.0 | 0.00 | 0.02 | 0.02 | 92 | 1007.6 |
| 20260905222013 | 62 | 270 | 0.0 | 2.0 | 0.00 | 0.02 | 0.02 | 93 | 1007.6 |
| 20260905221512 | 62 | 257 | 0.0 | 1.0 | 0.00 | 0.02 | 0.02 | 92 | 1007.4 |
| 20260905221011 | 62 | 240 | 0.0 | 1.0 | 0.02 | 0.02 | 0.02 | 92 | 1007.4 |
| 20260905220514 | 62 | 256 | 0.0 | 4.0 | 0.02 | 0.02 | 0.02 | 92 | 1007.3 |
| 20260905220011 | 63 | 280 | 0.0 | 4.0 | 0.02 | 0.02 | 0.02 | 91 | 1007.3 |
| 20260905215511 | 63 | 250 | 0.0 | 4.0 | 0.02 | 0.02 | 0.02 | 91 | 1007.2 |
| 20260905215110 | 63 | 355 | 0.0 | 4.0 | 0.02 | 0.02 | 0.02 | 90 | 1007.2 |
| 20260905214512 | 64 | 242 | 0.0 | 3.0 | 0.02 | 0.02 | 0.02 | 90 | 1007.1 |
| 20260905214008 | 64 | 265 | 0.0 | 4.0 | 0.02 | 0.02 | 0.02 | 89 | 1007.0 |
| 20260905213509 | 64 | 211 | 1.0 | 4.0 | 0.02 | 0.02 | 0.02 | 89 | 1007.0 |
| 20260905213008 | 65 | 106 | 0.0 | 2.0 | 0.02 | 0.02 | 0.02 | 88 | 1006.9 |
| 20260905212508 | 65 | 290 | 0.0 | 3.0 | 0.02 | 0.02 | 0.02 | 85 | 1006.9 |
| 20260905212006 | 67 | 37 | 0.0 | 5.0 | 0.02 | 0.02 | 0.02 | 85 | 1006.9 |
| 20260905211506 | 68 | 36 | 0.0 | 5.0 | 0.02 | 0.02 | 0.02 | 84 | 1006.8 |
| 20260905211005 | 68 | 17 | 2.0 | 8.0 | 0.00 | 0.00 | 0.00 | 84 | 1006.6 |
| 20260905210505 | 68 | 14 | 2.0 | 8.0 | 0.00 | 0.00 | 0.00 | 83 | 1006.6 |
| 20260905210005 | 68 | 234 | 2.0 | 6.0 | 0.00 | 0.00 | 0.00 | 82 | 1006.5 |
| 20260905205506 | 68 | 242 | 1.0 | 4.0 | 0.00 | 0.00 | 0.00 | 82 | 1006.5 |
| 20260905205006 | 68 | 349 | 1.0 | 4.0 | 0.00 | 0.00 | 0.00 | 83 | 1006.5 |
| 20260905204504 | 67 | 5 | 1.0 | 5.0 | 0.00 | 0.00 | 0.00 | 86 | 1006.4 |
| 20260905204004 | 65 | 321 | 1.0 | 5.0 | 0.00 | 0.00 | 0.00 | 88 | 1006.4 |
| 20260905203506 | 64 | 287 | 1.0 | 4.0 | 0.00 | 0.00 | 0.00 | 88 | 1006.5 |
| 20260905203004 | 64 | 305 | 1.0 | 4.0 | 0.00 | 0.00 | 0.00 | 88 | 1006.5 |
| 20260905202503 | 64 | 245 | 1.0 | 3.0 | 0.00 | 0.00 | 0.00 | 88 | 1006.5 |
| 20260905202004 | 64 | 264 | 1.0 | 3.0 | 0.00 | 0.00 | 0.00 | 89 | 1006.5 |
| 20260905201504 | 64 | 269 | 0.0 | 2.0 | 0.00 | 0.00 | 0.00 | 89 | 1006.5 |
| 20260905201003 | 64 | 271 | 0.0 | 3.0 | 0.00 | 0.00 | 0.00 | 88 | 1006.5 |
| 20260905200503 | 64 | 261 | 0.0 | 4.0 | 0.00 | 0.00 | 0.00 | 88 | 1006.5 |
| 20260905200003 | 64 | 278 | 0.0 | 5.0 | 0.00 | 0.00 | 0.00 | 87 | 1006.5 |
| 20260905195503 | 65 | 290 | 1.0 | 8.0 | 0.00 | 0.00 | 0.00 | 86 | 1006.5 |
| 20260905195006 | 66 | 280 | 2.0 | 8.0 | 0.00 | 0.00 | 0.00 | 85 | 1006.5 |
| 20260905194502 | 66 | 225 | 1.0 | 6.0 | 0.00 | 0.00 | 0.00 | 83 | 1006.4 |
| 20260905194002 | 66 | 275 | 1.0 | 9.0 | 0.00 | 0.00 | 0.00 | 84 | 1006.3 |
| 20260905193502 | 65 | 245 | 1.0 | 4.0 | 0.00 | 0.00 | 0.00 | 83 | 1006.3 |
| 20260905193007 | 65 | 336 | 0.0 | 4.0 | 0.00 | 0.00 | 0.00 | 84 | 1006.3 |
| 20260905192502 | 65 | 348 | 1.0 | 4.0 | 0.00 | 0.00 | 0.00 | 82 | 1006.4 |
| 20260905192001 | 65 | 216 | 2.0 | 4.0 | 0.00 | 0.00 | 0.00 | 84 | 1006.5 |
| 20260905191501 | 66 | 235 | 1.0 | 7.0 | 0.00 | 0.00 | 0.00 | 84 | 1006.5 |
| 20260905191001 | 66 | 248 | 2.0 | 7.0 | 0.00 | 0.00 | 0.00 | 83 | 1006.3 |
| 20260905190602 | 66 | 19 | 2.0 | 7.0 | 0.00 | 0.00 | 0.00 | 84 | 1006.3 |
| 20260905190101 | 66 | 294 | 1.0 | 6.0 | 0.00 | 0.00 | 0.00 | 84 | 1006.3 |
| 20260905185600 | 66 | 247 | 1.0 | 6.0 | 0.00 | 0.00 | 0.00 | 83 | 1006.3 |
| 20260905185059 | 66 | 279 | 1.0 | 6.0 | 0.00 | 0.00 | 0.00 | 84 | 1006.4 |
| 20260905184608 | 66 | 173 | 2.0 | 9.0 | 0.00 | 0.00 | 0.00 | 83 | 1006.4 |
| 20260905184059 | 66 | 284 | 2.0 | 9.0 | 0.00 | 0.00 | 0.00 | 84 | 1006.4 |
| 20260905183559 | 66 | 241 | 1.0 | 6.0 | 0.00 | 0.00 | 0.00 | 84 | 1006.4 |
| 20260905183059 | 66 | 286 | 2.0 | 8.0 | 0.00 | 0.00 | 0.00 | 84 | 1006.5 |
| 20260905182559 | 67 | 273 | 1.0 | 3.0 | 0.00 | 0.00 | 0.00 | 84 | 1006.5 |
| 20260905182059 | 68 | 293 | 1.0 | 8.0 | 0.00 | 0.00 | 0.00 | 83 | 1006.5 |
| 20260905181559 | 68 | 343 | 3.0 | 8.0 | 0.00 | 0.00 | 0.00 | 82 | 1006.4 |
| 20260905181058 | 68 | 323 | 1.0 | 5.0 | 0.00 | 0.00 | 0.00 | 82 | 1006.3 |